Home   Weather   47°38'N, 10°49'E   Past weeks
Flag for Germany

Past Weather in 47°38'N, 10°49'E, Germany — Yesterday and Last 2 Weeks

Now
57 °F

Clear.


Feels Like: 57 °F
Forecast: 76 / 53 °F
Wind: 5 mph from Northwest

Location: Innsbruck-Flughafen

Current Time: Jul 18, 2019 at 4:46:00 am

Latest Report: Jul 18, 2019 at 3:50 am


Visibility: N/A

Pressure: 29.95 "Hg

Humidity: 88%

Dew Point: 54 °F

Location of 47°38'N, 10°49'ELocation

Past Weather in 47°38'N, 10°49'E — Graph

°F

47°38'N, 10°49'E Temperature Yesterday

Maximum temperature yesterday: 82 °F (at 3:20 pm)
Minimum temperature yesterday: 54 °F (at 5:20 am)
Average temperature yesterday: 68 °F

High & Low Weather Summary for the Past Weeks

 TemperatureHumidityPressure
High90 °F (Jul 5, 4:20 pm)100% (Jul 8, 12:50 am)30.18 "Hg (Jul 8, 12:50 am)
Low50 °F (Jul 11, 4:20 am)22% (Jul 5, 4:20 pm)29.83 "Hg (Jul 6, 5:20 pm)
Average65 °F69%30.02 "Hg
* Reported Jul 3 3:20 am — Jul 18 3:20 am, 47°38'N, 10°49'E. Weather by CustomWeather, © 2019

Note: Actual official high and low records may vary slightly from our data, if they occured in-between our weather recording intervals... More about our weather records

Advertising

47°38'N, 10°49'E Weather History for the Previous 24 Hours

Scroll right to see more
 ConditionsComfort  
Time TempWeatherWind HumidityBarometerVisibility
3:20 am
Thu, Jul 18
59 °FClear.3 mph82%29.95 "HgN/A
2:50 am63 °FPassing clouds.5 mph73%29.95 "HgN/A
2:20 am63 °FPassing clouds.6 mph73%29.95 "HgN/A
1:50 am61 °FClear.2 mph77%29.95 "HgN/A
1:20 am61 °FClear.5 mph83%29.95 "HgN/A
12:50 am61 °FClear.2 mph77%29.95 "HgN/A
12:20 am63 °FClear.2 mph77%29.95 "HgN/A
11:50 pm
Wed, Jul 17
64 °FClear.3 mph73%29.95 "HgN/A
11:20 pm66 °FClear.7 mph73%29.95 "HgN/A
10:50 pm66 °FPassing clouds.5 mph73%29.95 "HgN/A
10:20 pm68 °FPassing clouds.6 mph69%29.92 "HgN/A
9:50 pm70 °FPassing clouds.6 mph64%29.92 "HgN/A
9:20 pm72 °FPartly cloudy.6 mph57%29.92 "HgN/A
8:50 pm72 °FBroken clouds.3 mph57%29.89 "HgN/A
8:20 pm73 °FPartly sunny.7 mph53%29.89 "HgN/A
7:50 pm75 °FPartly sunny.12 mph47%29.89 "HgN/A
7:20 pm75 °FPartly sunny.8 mph50%29.89 "HgN/A
6:50 pm77 °FPartly sunny.14 mph44%29.86 "HgN/A
6:20 pm79 °FScattered clouds.6 mph42%29.86 "HgN/A
5:50 pm79 °FThunderstorms. Scattered clouds.9 mph42%29.86 "HgN/A
5:20 pm79 °FScattered clouds.14 mph39%29.86 "HgN/A
4:50 pm81 °FScattered clouds.9 mph34%29.86 "HgN/A
4:20 pm82 °FScattered clouds.8 mph37%29.86 "HgN/A
3:50 pm82 °FScattered clouds.9 mph32%29.86 "HgN/A
3:20 pm82 °FScattered clouds.6 mph35%29.86 "HgN/A
2:50 pm81 °FScattered clouds.6 mph32%29.89 "HgN/A
2:20 pm81 °FScattered clouds.5 mph37%29.89 "HgN/A
1:50 pm79 °FScattered clouds.7 mph42%29.89 "HgN/A
1:20 pm79 °FScattered clouds.5 mph42%29.92 "HgN/A
12:50 pm77 °FScattered clouds.2 mph42%29.92 "HgN/A
12:20 pm75 °FScattered clouds.2 mph50%29.92 "HgN/A
11:50 am75 °FScattered clouds.2 mph44%29.95 "HgN/A
11:20 am72 °FScattered clouds.2 mph50%29.95 "HgN/A
10:50 am72 °FScattered clouds.2 mph53%29.98 "HgN/A
10:20 am68 °FPartly sunny.3 mph60%29.98 "HgN/A
9:50 am66 °FPartly sunny.3 mph60%30.01 "HgN/A
9:20 am64 °FPartly sunny.3 mph68%30.01 "HgN/A
8:50 am63 °FPassing clouds.5 mph73%30.01 "HgN/A
8:20 am61 °FPassing clouds.3 mph72%30.04 "HgN/A
7:50 am59 °FSunny.5 mph77%30.04 "Hg10 mi
7:20 am57 °FPassing clouds.5 mph82%30.04 "HgN/A
6:50 am55 °FSunny.6 mph88%30.04 "Hg10 mi
6:20 am55 °FSunny.2 mph82%30.04 "Hg10 mi
5:50 am54 °FSunny.3 mph88%30.04 "Hg10 mi
5:20 am54 °FClear.1 mph88%30.04 "HgN/A
4:50 am55 °FClear.1 mph82%30.04 "HgN/A
4:20 am55 °FClear.2 mph82%30.04 "HgN/A
Weather by CustomWeather, © 2019

See weather overview